Change the Weather History Date:

Sunday, October 13, 2013

  Actual Average Record
Temperature  
Mean Temperature 46 °F -  
Max Temperature 57 °F 58 °F 80 °F (1956)
Min Temperature 35 °F 37 °F 5 °F (1999)
Degree Days  
Heating Degree Days 19    
Moisture  
Dew Point 35 °F    
Average Humidity 71    
Maximum Humidity 93    
Minimum Humidity 38    
Precipitation  
Precipitation 0.00 in - - ()
Sea Level Pressure  
Sea Level Pressure 30.34 in    
Wind  
Wind Speed 5 mph (WSW)    
Max Wind Speed 9 mph    
Max Gust Speed -    
Visibility 10 miles    
Events      
Averages and records for this station are not official NWS values.
T = Trace of Precipitation, MM = Missing Value Source: NWS Daily Summary

Daily Weather History Graph

Daily Weather History Graph

Search for Another Location

Airport or City:

Trip Planner

Search our weather history database for the weather conditions in past years. The results will help you decide how hot, cold, wet, or windy it might be!

Date:

Astronomy

Oct. 13, 2013 Rise Set
Actual Time 7:35 AM CDT 6:38 PM CDT
Civil Twilight 7:05 AM CDT 7:08 PM CDT
Nautical Twilight 6:31 AM CDT 7:42 PM CDT
Astronomical Twilight 5:56 AM CDT 8:17 PM CDT
Moon 3:45 PM CDT (10/13) 1:30 AM CDT (10/13)
Length of Visible Light 12h 02m
Length of Day
11h 03m
Waxing Gibbous, 69% of the Moon is Illuminated
Oct 13
Waxing Gibbous
Oct 18
Full
Oct 26
Last Quarter
Nov 3
New
Nov 9
First Quarter

Hourly Weather History & Observations

Time (CDT) Temp. Windchill Dew Point Humidity Pressure Visibility Wind Dir Wind Speed Gust Speed Precip Events Conditions
12:13 AM 37.4 °F 32.1 °F 33.8 °F 87% 30.20 in 10.0 mi West 6.9 mph - N/A   Clear
12:33 AM 37.4 °F 32.1 °F 33.8 °F 87% 30.21 in 10.0 mi West 6.9 mph - N/A   Clear
12:53 AM 37.4 °F 32.1 °F 33.8 °F 87% 30.22 in 10.0 mi West 6.9 mph - N/A   Clear
1:13 AM 39.2 °F 34.2 °F 33.8 °F 81% 30.22 in 10.0 mi West 6.9 mph - N/A   Clear
1:33 AM 37.4 °F 32.8 °F 33.8 °F 87% 30.24 in 10.0 mi West 5.8 mph - N/A   Clear
1:53 AM 37.4 °F 34.9 °F 33.8 °F 87% 30.23 in 10.0 mi West 3.5 mph - N/A   Clear
2:13 AM 37.4 °F 33.8 °F 33.8 °F 87% 30.25 in 10.0 mi West 4.6 mph - N/A   Clear
2:33 AM 37.4 °F 34.9 °F 33.8 °F 87% 30.25 in 10.0 mi West 3.5 mph - N/A   Clear
2:53 AM 37.4 °F 33.8 °F 33.8 °F 87% 30.26 in 10.0 mi West 4.6 mph - N/A   Clear
3:13 AM 35.6 °F 30.7 °F 33.8 °F 93% 30.27 in 10.0 mi West 5.8 mph - N/A   Clear
3:33 AM 37.4 °F 32.1 °F 33.8 °F 87% 30.27 in 10.0 mi West 6.9 mph - N/A   Clear
3:53 AM 37.4 °F 31.4 °F 35.6 °F 93% 30.28 in 10.0 mi West 8.1 mph - N/A   Clear
4:13 AM 37.4 °F 32.1 °F 35.6 °F 93% 30.28 in 10.0 mi West 6.9 mph - N/A   Clear
4:34 AM 37.4 °F 30.8 °F 35.6 °F 93% 30.29 in 10.0 mi West 9.2 mph - N/A   Clear
4:53 AM 37.4 °F 31.4 °F 35.6 °F 93% 30.30 in 10.0 mi West 8.1 mph - N/A   Clear
5:13 AM 37.4 °F 32.8 °F 33.8 °F 87% 30.30 in 10.0 mi West 5.8 mph - N/A   Clear
5:33 AM 37.4 °F 32.1 °F 35.6 °F 93% 30.31 in 10.0 mi West 6.9 mph - N/A   Clear
5:53 AM 37.4 °F 32.8 °F 33.8 °F 87% 30.31 in 10.0 mi West 5.8 mph - N/A   Clear
6:13 AM 37.4 °F 33.8 °F 33.8 °F 87% 30.32 in 10.0 mi West 4.6 mph - N/A   Clear
6:33 AM 35.6 °F 32.8 °F 33.8 °F 93% 30.32 in 10.0 mi West 3.5 mph - N/A   Clear
6:53 AM 35.6 °F - 33.8 °F 93% 30.33 in 10.0 mi Calm Calm - N/A   Clear
7:13 AM 35.6 °F 32.8 °F 33.8 °F 93% 30.34 in 10.0 mi WSW 3.5 mph - N/A   Clear
7:34 AM 35.6 °F 31.7 °F 33.8 °F 93% 30.35 in 10.0 mi WSW 4.6 mph - N/A   Clear
7:53 AM 35.6 °F 32.8 °F 33.8 °F 93% 30.35 in 10.0 mi WSW 3.5 mph - N/A   Clear
8:13 AM 35.6 °F 31.7 °F 33.8 °F 93% 30.36 in 10.0 mi West 4.6 mph - N/A   Clear
8:33 AM 37.4 °F 33.8 °F 35.6 °F 93% 30.37 in 10.0 mi West 4.6 mph - N/A   Clear
8:53 AM 39.2 °F - 35.6 °F 87% 30.38 in 10.0 mi Calm Calm - N/A   Clear
9:13 AM 41.0 °F - 37.4 °F 87% 30.39 in 10.0 mi Calm Calm - N/A   Clear
9:33 AM 42.8 °F - 37.4 °F 81% 30.39 in 10.0 mi Calm Calm - N/A   Clear
9:53 AM 46.4 °F 45.2 °F 37.4 °F 71% 30.40 in 10.0 mi WSW 3.5 mph - N/A   Clear
10:13 AM 48.2 °F - 37.4 °F 66% 30.40 in 10.0 mi WSW 4.6 mph - N/A   Clear
10:33 AM 48.2 °F - 37.4 °F 66% 30.41 in 10.0 mi WSW 4.6 mph - N/A   Clear
10:53 AM 51.8 °F - 37.4 °F 58% 30.41 in 10.0 mi WSW 5.8 mph - N/A   Clear
11:13 AM 51.8 °F - 37.4 °F 58% 30.41 in 10.0 mi SW 6.9 mph - N/A   Clear
11:33 AM 51.8 °F - 37.4 °F 58% 30.42 in 10.0 mi SW 5.8 mph - N/A   Clear
11:53 AM 53.6 °F - 35.6 °F 51% 30.41 in 10.0 mi West 6.9 mph - N/A   Clear
12:13 PM 53.6 °F - 35.6 °F 51% 30.42 in 10.0 mi West 5.8 mph - N/A   Clear
12:34 PM 55.4 °F - 33.8 °F 44% 30.41 in 10.0 mi West 4.6 mph - N/A   Clear
12:53 PM 55.4 °F - 35.6 °F 47% 30.41 in 10.0 mi Calm Calm - N/A   Clear
1:13 PM 55.4 °F - 33.8 °F 44% 30.41 in 10.0 mi Calm Calm - N/A   Clear
1:33 PM 55.4 °F - 33.8 °F 44% 30.40 in 10.0 mi Calm Calm - N/A   Clear
1:53 PM 57.2 °F - 33.8 °F 41% 30.39 in 10.0 mi SW 6.9 mph - N/A   Clear
2:13 PM 55.4 °F - 33.8 °F 44% 30.39 in 10.0 mi Calm Calm - N/A   Clear
2:33 PM 57.2 °F - 32.0 °F 38% 30.38 in 10.0 mi SW 3.5 mph - N/A   Clear
2:53 PM 57.2 °F - 32.0 °F 38% 30.37 in 10.0 mi West 6.9 mph - N/A   Clear
3:13 PM 57.2 °F - 32.0 °F 38% 30.37 in 10.0 mi WSW 5.8 mph - N/A   Scattered Clouds
3:33 PM 57.2 °F - 32.0 °F 38% 30.37 in 10.0 mi West 4.6 mph - N/A   Mostly Cloudy
3:53 PM 55.4 °F - 32.0 °F 41% 30.37 in 10.0 mi WSW 4.6 mph - N/A   Overcast
4:13 PM 57.2 °F - 32.0 °F 38% 30.36 in 10.0 mi Calm Calm - N/A   Scattered Clouds
4:33 PM 55.4 °F - 32.0 °F 41% 30.36 in 10.0 mi Calm Calm - N/A   Clear
4:54 PM 55.4 °F - 32.0 °F 41% 30.36 in 10.0 mi Calm Calm - N/A   Clear
5:13 PM 53.6 °F - 35.6 °F 51% 30.36 in 10.0 mi West 3.5 mph - N/A   Scattered Clouds
5:33 PM 53.6 °F - 35.6 °F 51% 30.36 in 10.0 mi WSW 3.5 mph - N/A   Scattered Clouds
5:53 PM 53.6 °F - 37.4 °F 54% 30.36 in 10.0 mi Calm Calm - N/A   Scattered Clouds
6:13 PM 53.6 °F - 39.2 °F 58% 30.36 in 10.0 mi Calm Calm - N/A   Mostly Cloudy
6:33 PM 51.8 °F - 39.2 °F 62% 30.37 in 10.0 mi Calm Calm - N/A   Mostly Cloudy
6:53 PM 50.0 °F - 37.4 °F 62% 30.37 in 10.0 mi South 3.5 mph - N/A   Scattered Clouds
7:13 PM 50.0 °F - 37.4 °F 62% 30.36 in 10.0 mi Calm Calm - N/A   Clear
7:33 PM 48.2 °F - 35.6 °F 62% 30.36 in 10.0 mi Calm Calm - N/A   Clear
7:53 PM 48.2 °F - 37.4 °F 66% 30.36 in 10.0 mi Calm Calm - N/A   Clear
8:13 PM 46.4 °F 45.2 °F 39.2 °F 76% 30.36 in 10.0 mi East 3.5 mph - N/A   Clear
8:33 PM 44.6 °F 42.2 °F 39.2 °F 81% 30.36 in 10.0 mi East 4.6 mph - N/A   Clear
8:53 PM 44.6 °F 43.1 °F 39.2 °F 81% 30.36 in 10.0 mi ENE 3.5 mph - N/A   Clear
9:14 PM 44.6 °F 42.2 °F 37.4 °F 76% 30.36 in 10.0 mi East 4.6 mph - N/A   Clear
9:33 PM 44.6 °F 41.4 °F 37.4 °F 76% 30.36 in 10.0 mi East 5.8 mph - N/A   Clear
9:53 PM 42.8 °F 39.3 °F 37.4 °F 81% 30.36 in 10.0 mi East 5.8 mph - N/A   Clear
10:13 PM 42.8 °F 40.1 °F 37.4 °F 81% 30.37 in 10.0 mi East 4.6 mph - N/A   Clear
10:33 PM 42.8 °F 39.3 °F 37.4 °F 81% 30.36 in 10.0 mi East 5.8 mph - N/A   Clear
10:54 PM 42.8 °F 40.1 °F 37.4 °F 81% 30.36 in 10.0 mi East 4.6 mph - N/A   Clear
11:13 PM 42.8 °F 40.1 °F 35.6 °F 76% 30.36 in 10.0 mi East 4.6 mph - N/A   Clear
11:33 PM 42.8 °F 40.1 °F 37.4 °F 81% 30.37 in 10.0 mi East 4.6 mph - N/A   Clear
11:53 PM 42.8 °F 39.3 °F 37.4 °F 81% 30.37 in 10.0 mi East 5.8 mph - N/A   Clear